This is the latest recevied weather packets stored in our database for station/object KO6HRZ. If no packets are shown the sender has not sent any weather packets the latest 10 day(s).
| Time | Temp. | Humidity | Pressure | Rain* | Wind** | Luminosity | Snow |
|---|---|---|---|---|---|---|---|
| 1777002163 | 17.22° C | 66% | 1015 hPa | 0 mm | - | 0 W/m² | - |
| 1777001562 | 17.78° C | 66% | 1014.9 hPa | 0 mm | - | 0 W/m² | - |
| 1777000959 | 17.78° C | 64% | 1015 hPa | 0 mm | - | 0 W/m² | - |
| 1777000358 | 18.33° C | 63% | 1015.1 hPa | 0 mm | - | 0 W/m² | - |
| 1776999755 | 18.89° C | 63% | 1015 hPa | 0 mm | - | 0 W/m² | - |
| 1776999155 | 19.44° C | 62% | 1014.9 hPa | 0 mm | - | 2 W/m² | - |
| 1776998554 | 20° C | 58% | 1014.9 hPa | 0 mm | - | 6 W/m² | - |
| 1776997952 | 20.56° C | 56% | 1014.9 hPa | 0 mm | - | 16 W/m² | - |
| 1776997350 | 21.11° C | 54% | 1014.9 hPa | 0 mm | - | 23 W/m² | - |
| 1776996748 | 21.67° C | 47% | 1014.8 hPa | 0 mm | - | 28 W/m² | - |
| 1776996146 | 22.22° C | 42% | 1014.8 hPa | 0 mm | - | 33 W/m² | - |
| 1776995544 | 22.78° C | 42% | 1015 hPa | 0 mm | - | 67 W/m² | - |
| 1776994941 | 23.89° C | 40% | 1015.2 hPa | 0 mm | - | 63 W/m² | - |
| 1776994337 | 23.89° C | 38% | 1015.2 hPa | 0 mm | - | 51 W/m² | - |
| 1776993737 | 23.33° C | 42% | 1015.2 hPa | 0 mm | - | 69 W/m² | - |
| 1776993137 | 23.33° C | 40% | 1015.2 hPa | 0 mm | - | 57 W/m² | - |
| 1776992536 | 23.89° C | 39% | 1015.4 hPa | 0 mm | - | 56 W/m² | - |
| 1776991936 | 24.44° C | 39% | 1015.4 hPa | 0 mm | - | 67 W/m² | - |
| 1776991335 | 25° C | 37% | 1015.4 hPa | 0 mm | - | 72 W/m² | - |
| 1776990734 | 25° C | 37% | 1015.5 hPa | 0 mm | - | 106 W/m² | - |
| 1776990133 | 25° C | 40% | 1015.5 hPa | 0 mm | - | 284 W/m² | - |
| 1776989530 | 24.44° C | 40% | 1015.6 hPa | 0 mm | - | 364 W/m² | - |
| 1776988929 | 24.44° C | 38% | 1015.6 hPa | 0 mm | - | 413 W/m² | - |
* Rain latest hour (hover to see other rain measurements)
** Current wind speed in m/s (hover to see current wind gust speed)